Regional Weather Roundup
Issued by NWS Albany, NY

Home | Current Version | Previous Version | Graphics & Text | Print | Product List | Glossary On
Versions: 1 2 3 4 5 6 7 8 9 10 11 12 13 14 15 16 17 18 19 20 21 22 23 24 25 26 27
000
ASUS41 KALY 251810
RWRALY

NEW YORK STATE HOURLY WEATHER ROUNDUP
NATIONAL WEATHER SERVICE ALBANY NY
200 PM EDT TUE JUL 25 2017

NOTE: "FAIR" INDICATES FEW OR NO CLOUDS BELOW 12,000 FEET WITH NO
SIGNIFICANT WEATHER AND/OR NO OBSTRUCTIONS TO VISIBILITY.

NYZ032-033-038>043-046>054-057>066-NYZ062>081-082-084-251900-
EAST


CITY           SKY/WX    TMP DP  RH WIND       PRES   REMARKS
ALBANY         DRIZZLE   63  57  81 N3        30.15R
GLENS FALLS    CLOUDY    65  55  70 VRB3      30.15R
POUGHKEEPSIE   CLOUDY    65  57  75 CALM      30.12R
NEWBURGH       CLOUDY    64  61  88 CALM      30.14R
MONTGOMERY     CLOUDY    66  58  75 CALM      30.12S
WHITE PLAINS   CLOUDY    65  58  78 E3        30.12S
ISLIP          CLOUDY    67  59  75 NE7       30.11R
NEW YORK CITY  CLOUDY    68  61  78 NE10      30.11S
CENTRAL PARK   CLOUDY    69  59  70 NE6       30.14S
$$

NYZ005>009-017-018-044>046-055-056-251900-
CENTRAL


CITY           SKY/WX    TMP DP  RH WIND       PRES   REMARKS
FULTON         CLOUDY    65  60  84 N8        30.14R
SYRACUSE       CLOUDY    64  60  87 W8        30.13R
ROME           CLOUDY    67  60  78 VRB5      30.13R
ELMIRA         CLOUDY    67  58  72 N6        30.15R
BINGHAMTON     CLOUDY    62  58  86 W10       30.14S
$$

NYZ026>034-041>043-087-251900-
NORTH


CITY           SKY/WX    TMP DP  RH WIND       PRES   REMARKS
WATERTOWN      CLOUDY    66  60  81 NE12      30.15R
FORT DRUM      NOT AVBL
OGDENSBURG     CLOUDY    67  58  70 NE8       30.17R
MASSENA        PTSUNNY   67  58  72 NE12      30.18S
SARANAC LAKE   CLOUDY    58  56  93 NE6       30.17R
PLATTSBURGH    CLOUDY    66  56  70 NE6       30.17R
$$

NYZ001>004-010>016-019>021-085-251900-
WEST


CITY           SKY/WX    TMP DP  RH WIND       PRES   REMARKS
NIAGARA FALLS  CLOUDY    68  54  60 N8        30.21R
BUFFALO        PTSUNNY   65  54  67 VRB5      30.21S
DUNKIRK        CLOUDY    67  56  67 NE13      30.22R
JAMESTOWN      CLOUDY    63  52  67 N8        30.22R
WELLSVILLE     CLOUDY    64  54  69 N9        30.22R
ROCHESTER      CLOUDY    64  56  75 N9        30.20R
PENN YAN       CLOUDY    63  55  75 NW9       30.19R
$$

             KEY
       WCI = WIND CHILL INDEX
       VSB = VISIBILITY
       HX  = HEAT INDEX
$$




USA.gov is the U.S. government's official web portal to all federal, state and local government web resources and services.